Location: Grand Moustoir
(47.8355°N, 3.3120°W)
Time: 09:32:10
(UTC+00:00)

Alouette 2 Rocket - Pass Details

Date: 20 January 2020
Orbit: 502 x 2650 km, 79.8° (Epoch: 16 February)

Event Time Altitude Azimuth Distance (km) Brightness Sun altitude
Rises 07:12:09 0° 189° (S) 3,542 7.6 -7.2°
Reaches altitude 10° 07:14:59 10° 189° (S) 2,340 6.7 -6.7°
Maximum altitude 07:19:54 82° 101° (ESE) 621 3.7 -6.0°
Drops below altitude 10° 07:23:38 10° 15° (NNE) 1,785 5.8 -5.4°
Sets 07:25:34 0° 15° (NNE) 2,627 6.7 -5.1°
